Regional Weather Roundup
Issued by NWS

Home | Current Version | Previous Version | Text Only | Print | Product List | Glossary On
Versions: 1 2 3 4 5 6 7 8 9 10 11 12 13 14 15 16 17 18 19 20 21 22 23 24 25 26 27 28 29 30 31 32 33 34 35 36 37 38 39 40 41 42 43 44 45 46 47 48 49 50
000
ASUS45 KTFX 020019
RWRMT
MONTANA HOURLY WEATHER ROUNDUP
NATIONAL WEATHER SERVICE GREAT FALLS MT
519 PM MST SUN FEB 1 2015

NOTE: "FAIR" INDICATES FEW OR NO CLOUDS BELOW 12000 FEET WITH NO
SIGNIFICANT WEATHER AND/OR OBSTRUCTIONS TO VISIBILITY.

* THESE STATIONS ARE NOT UNDER NWS QUALITY CONTROL. THEY DO NOT
   REPORT WEATHER SUCH AS PRECIPITATION OR FOG.

MTZ001>007-043-020100-
WEST OF THE DIVIDE
CITY           SKY/WX    TMP DP  RH WIND       PRES   REMARKS
KALISPELL      LGT SNOW  27  23  85 CALM      29.99F VSB 2 1/2
MISSOULA       CLOUDY    28  25  89 NW3       30.02F
BUTTE          CLOUDY    30  25  82 NW3       29.95F
MULLAN PASS    SNOW      28  25  89 SW9G16    29.89F VSB 1/2  WCI  19
* ANACONDA     MOCLDY    36  21  54 S8         N/A   WCI  30
* ESSEX        N/A       24  20  85 S1         N/A
* EUREKA APT   CLOUDY    30  25  82 S12       29.98F WCI  20
* HAMILTON APT CLOUDY    32  23  69 N3        29.99S
* LIBBY APT    CLOUDY    30  28  92 CALM      29.99F
* LINCOLN      N/A       27  21  78 NE4        N/A
* LOOKOUT PASS N/A       28  27  96 N/A        N/A
* POLSON       N/A       27  26  96 N1         N/A
* RONAN APT    CLOUDY    28  28 100 N/A        N/A
* SEELEY LAKE  N/A       27  22  81 NW1        N/A
* THOMP F APT  CLOUDY    24  20  85 SE2G8      N/A
$$

MTZ008-052>055-020100-
SOUTHWEST MONTANA
CITY           SKY/WX    TMP DP  RH WIND       PRES   REMARKS
BOZEMAN        CLOUDY    27  18  69 SW3       29.99F
DILLON         CLOUDY    28  18  66 NW3       29.97F
* W YELLOWSTON CLOUDY    24  21  88 SW4        N/A
* THREE FORKS  CLOUDY    28  25  89 N/A        N/A
* BOULDER HILL N/A       25  18  75 S10        N/A   WCI  15
* MONIDA PASS  N/A       21  21 100 SE19       N/A   WCI   6
* RAYNOLDS PAS N/A       22   6  50 SE16       N/A   WCI   8
* WHITEHALL    N/A       34  16  48 W5         N/A   WCI  29
* WISE RIVER   N/A       26  20  78 N/A        N/A
$$

MTZ009>010-012-014-046-048-049-054-020100-
EAST SLOPES AND CENTRAL MONTANA
CITY           SKY/WX    TMP DP  RH WIND       PRES   REMARKS
CUT BANK       CLOUDY    18  14  84 SE6       29.86F WCI  10
GREAT FALLS    CLOUDY    30  21  69 SW18      29.87F WCI  18
HELENA         CLOUDY    25  16  69 NW5       29.99F WCI  19
MALMSTROM AFB  CLOUDY    30  25  82 SW9       29.89F WCI  22
* CONRAD       CLOUDY    25  18  75 E7         N/A   WCI  17
* DEARBORN     N/A       30  18  61 SW12G17    N/A   WCI  20
* EAST GLACIER N/A       29  21  72 W29G40     N/A   WCI  14
* MONARCH      N/A       30  15  54 SW15G21    N/A   WCI  19
* PENDROY      N/A       31  17  56 SE1        N/A
* ROGERS PASS  N/A       26  20  78 E9G20      N/A   WCI  17
* SWEET GRASS  N/A       13  12  96 S23        N/A   WCI  -6
* WHITE SULPH  N/A       28  20  72 S13G23     N/A   WCI  17
$$

MTZ011-013-016-021-035-040-045-047-050-051-020100-
NORTH CENTRAL MONTANA
CITY           SKY/WX    TMP DP  RH WIND       PRES   REMARKS
HAVRE          PTCLDY     7   1  76 E6        29.97F WCI  -4
LEWISTOWN      CLOUDY    28  18  66 CALM      29.88F
* N BAR RANCH  CLEAR     23  12  63 CALM      29.91F
* CHINOOK      PTCLDY     7   1  76 CALM      29.99F
* CHESTER      N/A       15   8  74 SE5        N/A   WCI   7
* DENTON       N/A       28  18  66 N/A        N/A
* GEYSER       N/A       30  16  56 S4         N/A
* JUDITH GAP   N/A       20  15  81 S13        N/A   WCI   7
* LOMA         N/A       16  10  77 E9         N/A   WCI   5
$$

MTZ017>020-022>027-061-062-020100-
NORTHEAST MONTANA
CITY           SKY/WX    TMP DP  RH WIND       PRES   REMARKS
GLASGOW        CLEAR     10   3  73 SE14      30.07F WCI  -6
GLENDIVE       CLEAR      9   1  70 CALM      30.15F
JORDAN         PTCLDY    12   7  80 SE5       30.05F WCI   4
SIDNEY         CLEAR      3 -24  26 S6        30.21F WCI  -8
WOLF POINT     CLEAR     12   3  67 CALM      30.15F
* BEAVER HILL  N/A        8   2  76 S9         N/A   WCI  -5
* CIRCLE       N/A       11   7  84 N/A        N/A
* NAVAJO       N/A        5  -1  76 S7         N/A   WCI  -7
* PLENTYWOOD A CLEAR      5  -2  72 S7        30.13F WCI  -7
* POPLAR APT   CLEAR     10   1  67 N/A       30.16F
* SACO         N/A        7   2  80 NE11       N/A   WCI  -8
* SCOBEY APT   CLEAR      7  -4  60 S6         N/A   WCI  -4
$$

MTZ028>042-056>058-020100-
SOUTHCENTRAL AND SOUTHEAST MONTANA
CITY           SKY/WX    TMP DP  RH WIND       PRES   REMARKS
BAKER          CLEAR      9   1  70 S5        30.14F
BILLINGS       CLOUDY    19  12  74 NE3       30.01F
LIVINGSTON     CLOUDY    37  21  52 SW26G32   29.94F WCI  25
MILES CITY     PTCLDY    16   7  67 SE9       30.10F WCI   5
* BIG TIMBER A MOCLDY    21  16  81 NW3       29.96F
* FORSYTH APT  MOCLDY    19  12  74 SE6       30.07F WCI  11
* LAUREL APT   CLOUDY    27  10  49 SW9        N/A   WCI  18
* ROUNDUP APT  CLOUDY    25  12  58 SW9        N/A   WCI  16
* ALZADA       N/A       13   8  80 SE4        N/A
* HYSHAM       N/A       20   8  59 SW5        N/A   WCI  13
* LAME DEER    N/A       18   9  68 S10        N/A   WCI   6
* REED POINT   N/A       22  14  71 E3         N/A
$$

REGIONAL REPORTS...DAKOTAS
CITY           SKY/WX    TMP DP  RH WIND       PRES   REMARKS
WILLISTON      CLEAR      7  -2  66 S7        30.21F WCI  -5
DICKINSON      PTCLDY     1  -6  72 S8        30.17F WCI -13
BEACH          CLEAR      1   0  95 S7        30.16F WCI -12
CROSBY         CLEAR      5   0  80 S12       30.19F WCI -11
TIOGA          CLEAR     -2  -9  72 S5        30.21F WCI -13
WATFORD CITY   CLEAR      5  -6  60 S6        30.19F WCI  -6
BISMARCK       CLEAR      1 -13  51 CALM      30.34F
GRAND FORKS    CLEAR      0 -11  59 E6        30.41F WCI -12
FARGO          CLEAR      1 -11  56 N8        30.42S WCI -13
BUFFALO SD     CLEAR     10   3  73 SW7       30.10F WCI  -1
RAPID CITY     CLEAR     10   5  80 SE5       30.21F WCI   1
$$

REGIONAL REPORTS...WYOMING/IDAHO/WASHINGTON
CITY           SKY/WX    TMP DP  RH WIND       PRES   REMARKS
GILLETTE       CLEAR     21  10  62 S7        30.05F WCI  12
SHERIDAN       MOCLDY    28  12  51 SE6       30.02F WCI  21
CODY           MOCLDY    25  18  75 E5        29.99F WCI  19
YELLOWSTONE LA MOCLDY    19  16  88 CALM      30.04S
SALMON         CLOUDY    27  18  69 CALM      30.08S
MULLAN PASS    SNOW      28  25  89 SW9G16    29.89S VSB 1/2  WCI  19
SAND POINT     LGT SNOW  32  32 100 S3        30.02F VSB 2
SPOKANE        LGT SNOW  30  28  92 S9        30.02R VSB 1 1/4 WCI  22
$$

REGIONAL REPORTS...ALBERTA
CITY           SKY/WX    TMP DP  RH WIND       PRES   REMARKS
CALGARY        CLOUDY    16   9  74 N13       29.87R WCI   2
LETHBRIDGE     CLOUDY    27  23  85 NW5       29.84F WCI  21
MEDICINE HAT   CLOUDY    21  12  68 W5        29.92F WCI  14
EDMONTON       FOG        5   0  80 CALM      30.04S
WATERTON GATE  N/A       32  21  64 SW22G30    N/A   WCI  19
CARDSTON       N/A       32  27  82 SW1        N/A
MILK RIVER     N/A       16  14  92 S12        N/A   WCI   3
$$

REGIONAL REPORTS...SASKATCHEWAN
CITY           SKY/WX    TMP DP  RH WIND       PRES   REMARKS
SWIFT CURRENT  FAIR       9   5  84 S15       29.94F WCI  -8
MOOSE JAW      MOCLDY    10   3  73 S8        30.08F WCI  -2
REGINA         MOCLDY     1  -2  87 SE9       30.10F WCI -14
VAL MARIE      N/A        3   0  87 SE6        N/A   WCI  -8
ASSINIBOIA     N/A        7   1  76 S9         N/A   WCI  -6
CORONACH       N/A        7   1  76 SE6        N/A   WCI  -4

$$



USA.gov is the U.S. government's official web portal to all federal, state and local government web resources and services.